Weather History for KMEH - May, 2013

Change the Weather History Date:

Wednesday, May 15, 2013

  Actual Average Record
Temperature  
Mean Temperature 46 °F -  
Max Temperature 63 °F 57 °F 87 °F (2006)
Min Temperature 30 °F 31 °F 27 °F (1999)
Degree Days  
Heating Degree Days 18    
Moisture  
Dew Point 33 °F    
Average Humidity 62    
Maximum Humidity 92    
Minimum Humidity 29    
Precipitation  
Precipitation 0.00 in - - ()
Sea Level Pressure  
Sea Level Pressure 30.04 in    
Wind  
Wind Speed 1 mph (North)    
Max Wind Speed 6 mph    
Max Gust Speed -    
Visibility 10 miles    
Events Rain    
Averages and records for this station are not official NWS values.
T = Trace of Precipitation, MM = Missing Value Source: NWS Daily Summary

Daily Weather History Graph

Daily Weather History Graph

Search for Another Location

Airport or City:

Trip Planner

Search our weather history database for the weather conditions in past years. The results will help you decide how hot, cold, wet, or windy it might be!

Date:

Astronomy

May. 15, 2013 Rise Set
Actual Time 5:22 AM PDT 8:18 PM PDT
Civil Twilight 4:48 AM PDT 8:52 PM PDT
Nautical Twilight 4:03 AM PDT 9:37 PM PDT
Astronomical Twilight 3:11 AM PDT 10:30 PM PDT
Moon 10:05 AM PDT (5/15) 12:04 AM PDT (5/15)
Length of Visible Light 16h 04m
Length of Day
14h 55m
Waxing Crescent, 28% of the Moon is Illuminated
May 15
Waxing Crescent
May 17
First Quarter
May 24
Full
May 31
Last Quarter
Jun 8
New

Hourly Weather History & Observations

Time (PDT) Temp. Dew Point Humidity Pressure Visibility Wind Dir Wind Speed Gust Speed Precip Events Conditions
12:56 AM 33.1 °F 30.0 °F 89% 30.12 in 10.0 mi Calm Calm - N/A   Clear
1:56 AM 30.9 °F 28.9 °F 92% 30.11 in 10.0 mi Calm Calm - N/A   Clear
2:56 AM 30.0 °F 28.0 °F 92% 30.09 in 10.0 mi Calm Calm - N/A   Clear
3:56 AM 30.0 °F 28.0 °F 92% 30.09 in 10.0 mi Calm Calm - N/A   Clear
4:56 AM 30.0 °F 28.0 °F 92% 30.09 in 10.0 mi Calm Calm - N/A   Clear
5:56 AM 30.9 °F 28.9 °F 92% 30.09 in 10.0 mi Calm Calm - N/A   Clear
6:56 AM 34.0 °F 30.9 °F 89% 30.10 in 10.0 mi Calm Calm - N/A   Clear
7:56 AM 41.0 °F 35.1 °F 79% 30.08 in 10.0 mi Calm Calm - N/A   Clear
8:56 AM 51.1 °F 30.0 °F 44% 30.06 in 10.0 mi Calm Calm - N/A   Clear
9:56 AM 54.0 °F 21.9 °F 29% 30.05 in 10.0 mi Calm Calm - N/A   Clear
10:56 AM 57.0 °F 32.0 °F 39% 30.05 in 10.0 mi Calm Calm - N/A   Clear
11:56 AM 57.0 °F 33.1 °F 40% 30.04 in 10.0 mi Variable 3.5 mph - N/A   Clear
12:56 PM 60.1 °F 34.0 °F 38% 30.02 in 10.0 mi Calm Calm - N/A   Clear
1:56 PM 62.1 °F 34.0 °F 35% 30.01 in 10.0 mi NE 4.6 mph - N/A   Partly Cloudy
2:56 PM 63.0 °F 33.1 °F 33% 29.99 in 10.0 mi Variable 5.8 mph - N/A   Clear
3:56 PM 62.1 °F 32.0 °F 32% 30.00 in 10.0 mi Variable 4.6 mph - N/A   Clear
4:56 PM 57.9 °F 33.1 °F 39% 30.01 in 10.0 mi Variable 3.5 mph - N/A   Mostly Cloudy
5:56 PM 54.0 °F 32.0 °F 43% 30.03 in 10.0 mi Variable 4.6 mph - N/A   Overcast
6:56 PM 53.1 °F 34.0 °F 48% 30.02 in 10.0 mi Variable 3.5 mph - N/A   Overcast
7:56 PM 50.0 °F 39.0 °F 66% 30.01 in 10.0 mi WNW 4.6 mph - 0.00 in Rain Light Rain
8:56 PM 50.0 °F 37.9 °F 63% 29.99 in 10.0 mi Calm Calm - N/A   Overcast
9:56 PM 48.0 °F 39.0 °F 71% 29.99 in 10.0 mi Calm Calm - N/A   Overcast
10:56 PM 48.0 °F 39.0 °F 71% 29.98 in 10.0 mi Calm Calm - N/A   Overcast
11:56 PM 46.9 °F 39.9 °F 77% 29.98 in 10.0 mi Calm Calm - N/A   Overcast